Time,TemperatureF,DewpointF,PressureIn,WindDirection,WindDirectionDegrees,WindSpeedMPH,WindSpeedGustMPH,Humidity,HourlyPrecipIn,Conditions,Clouds,dailyrainin,SolarRadiationWatts/m^2,SoftwareType,DateUTC
2013-03-21 00:00:00,30.0,18.9,29.84,WSW,255,2.0,2.0,63,0.00,,,0.11,0,Wunderground v.1.15,2013-03-21 04:00:00,
2013-03-21 00:02:00,30.0,18.9,29.84,WSW,255,2.0,2.0,63,0.00,,,0.11,0,Wunderground v.1.15,2013-03-21 04:02:00,
2013-03-21 00:04:00,30.1,19.0,29.84,WSW,255,2.0,2.0,63,0.00,,,0.11,0,Wunderground v.1.15,2013-03-21 04:04:00,
2013-03-21 00:06:00,30.1,18.6,29.84,WSW,255,2.0,4.0,62,0.00,,,0.11,0,Wunderground v.1.15,2013-03-21 04:06:00,
2013-03-21 00:12:00,30.4,18.5,29.84,WSW,255,1.0,4.0,61,0.00,,,0.11,0,Wunderground v.1.15,2013-03-21 04:12:00,
2013-03-21 00:18:00,30.4,18.5,29.84,WSW,255,1.0,4.0,61,0.00,,,0.11,0,Wunderground v.1.15,2013-03-21 04:18:00,
2013-03-21 00:24:00,30.1,18.6,29.84,WSW,255,0.0,4.0,62,0.00,,,0.11,0,Wunderground v.1.15,2013-03-21 04:24:00,
2013-03-21 00:30:00,29.7,19.4,29.84,WSW,255,0.0,4.0,65,0.00,,,0.11,0,Wunderground v.1.15,2013-03-21 04:30:00,
2013-03-21 00:36:00,29.0,19.8,29.84,WSW,255,0.0,4.0,68,0.00,,,0.11,0,Wunderground v.1.15,2013-03-21 04:36:00,
2013-03-21 00:42:00,28.5,20.3,29.84,WSW,255,0.0,4.0,71,0.00,,,0.11,0,Wunderground v.1.15,2013-03-21 04:42:00,
2013-03-21 00:48:00,28.1,20.2,29.84,WSW,255,0.0,4.0,72,0.00,,,0.11,0,Wunderground v.1.15,2013-03-21 04:48:00,
2013-03-21 00:54:00,28.2,19.3,29.84,WSW,255,0.0,4.0,69,0.00,,,0.11,0,Wunderground v.1.15,2013-03-21 04:54:00,
2013-03-21 01:00:00,28.4,19.2,29.85,WSW,255,0.0,4.0,68,0.00,,,0.11,0,Wunderground v.1.15,2013-03-21 05:00:00,
2013-03-21 01:06:00,28.4,19.5,29.85,WSW,255,0.0,4.0,69,0.00,,,0.11,0,Wunderground v.1.15,2013-03-21 05:06:00,
2013-03-21 01:12:00,28.1,19.2,29.86,WSW,255,0.0,0.0,69,0.00,,,0.11,0,Wunderground v.1.15,2013-03-21 05:12:00,
2013-03-21 01:18:00,28.7,18.8,29.86,WSW,255,0.0,1.0,66,0.00,,,0.11,0,Wunderground v.1.15,2013-03-21 05:18:00,
2013-03-21 01:24:00,29.0,18.3,29.86,WSW,255,0.0,1.0,64,0.00,,,0.11,0,Wunderground v.1.15,2013-03-21 05:24:00,
2013-03-21 01:30:00,29.3,18.6,29.86,WSW,255,0.0,0.0,64,0.00,,,0.11,0,Wunderground v.1.15,2013-03-21 05:30:00,
2013-03-21 01:38:00,29.1,18.8,29.86,WSW,255,0.0,1.0,65,0.00,,,0.11,0,Wunderground v.1.15,2013-03-21 05:38:00,
2013-03-21 01:44:00,29.0,18.7,29.86,WSW,255,0.0,0.0,65,0.00,,,0.11,0,Wunderground v.1.15,2013-03-21 05:44:00,
2013-03-21 01:50:00,28.4,19.5,29.86,WSW,255,0.0,0.0,69,0.00,,,0.11,0,Wunderground v.1.15,2013-03-21 05:50:00,
2013-03-21 01:56:00,27.6,20.1,29.86,WSW,255,0.0,0.0,73,0.00,,,0.11,0,Wunderground v.1.15,2013-03-21 05:56:00,
2013-03-21 02:02:00,27.0,19.8,29.86,WSW,255,0.0,0.0,74,0.00,,,0.11,0,Wunderground v.1.15,2013-03-21 06:02:00,
2013-03-21 02:08:00,26.9,19.7,29.86,WSW,255,0.0,0.0,74,0.00,,,0.11,0,Wunderground v.1.15,2013-03-21 06:08:00,
2013-03-21 02:14:00,27.0,19.5,29.86,WSW,255,0.0,0.0,73,0.00,,,0.11,0,Wunderground v.1.15,2013-03-21 06:14:00,
2013-03-21 02:20:00,27.5,19.3,29.86,WSW,254,0.0,0.0,71,0.00,,,0.11,0,Wunderground v.1.15,2013-03-21 06:20:00,
2013-03-21 02:26:00,27.2,20.0,29.86,WSW,255,0.0,0.0,74,0.00,,,0.11,0,Wunderground v.1.15,2013-03-21 06:26:00,
2013-03-21 02:32:00,26.7,19.8,29.86,WSW,255,0.0,0.0,75,0.00,,,0.11,0,Wunderground v.1.15,2013-03-21 06:32:00,
2013-03-21 02:38:00,26.3,20.1,29.86,WSW,255,0.0,0.0,77,0.00,,,0.11,0,Wunderground v.1.15,2013-03-21 06:38:00,
2013-03-21 02:44:00,26.0,20.1,29.85,WSW,255,1.0,2.0,78,0.00,,,0.11,0,Wunderground v.1.15,2013-03-21 06:44:00,
2013-03-21 02:50:00,25.7,20.1,29.85,WSW,255,1.0,2.0,79,0.00,,,0.11,0,Wunderground v.1.15,2013-03-21 06:50:00,
2013-03-21 02:56:00,25.8,19.6,29.85,WSW,255,1.0,2.0,77,0.00,,,0.11,0,Wunderground v.1.15,2013-03-21 06:56:00,
2013-03-21 03:02:00,26.1,19.3,29.85,WSW,254,1.0,2.0,75,0.00,,,0.11,0,Wunderground v.1.15,2013-03-21 07:02:00,
2013-03-21 03:08:00,26.6,19.4,29.85,WSW,255,1.0,2.0,74,0.00,,,0.11,0,Wunderground v.1.15,2013-03-21 07:08:00,
2013-03-21 03:14:00,27.0,18.8,29.85,WSW,255,1.0,2.0,71,0.00,,,0.11,0,Wunderground v.1.15,2013-03-21 07:14:00,
2013-03-21 03:20:00,27.0,18.8,29.85,WSW,254,1.0,2.0,71,0.00,,,0.11,0,Wunderground v.1.15,2013-03-21 07:20:00,
2013-03-21 03:26:00,26.9,18.7,29.84,WSW,255,1.0,2.0,71,0.00,,,0.11,0,Wunderground v.1.15,2013-03-21 07:26:00,
2013-03-21 03:32:00,26.7,18.9,29.84,WSW,255,1.0,2.0,72,0.00,,,0.11,0,Wunderground v.1.15,2013-03-21 07:32:00,
2013-03-21 03:38:00,26.7,18.9,29.84,WSW,255,1.0,2.0,72,0.00,,,0.11,0,Wunderground v.1.15,2013-03-21 07:38:00,
2013-03-21 03:44:00,26.9,18.4,29.84,WSW,254,1.0,2.0,70,0.00,,,0.11,0,Wunderground v.1.15,2013-03-21 07:44:00,
2013-03-21 03:50:00,27.0,18.2,29.84,WSW,255,1.0,2.0,69,0.00,,,0.11,0,Wunderground v.1.15,2013-03-21 07:50:00,
2013-03-21 03:56:00,27.6,17.7,29.83,WSW,255,1.0,4.0,66,0.00,,,0.11,0,Wunderground v.1.15,2013-03-21 07:56:00,
2013-03-21 04:02:00,28.2,17.2,29.83,NW,304,2.0,4.0,63,0.00,,,0.11,0,Wunderground v.1.15,2013-03-21 08:02:00,
2013-03-21 04:08:00,28.7,16.9,29.83,NW,304,3.0,4.0,61,0.00,,,0.11,0,Wunderground v.1.15,2013-03-21 08:08:00,
2013-03-21 04:14:00,29.0,16.8,29.83,NW,304,4.0,4.0,60,0.00,,,0.11,0,Wunderground v.1.15,2013-03-21 08:14:00,
2013-03-21 04:20:00,29.3,17.1,29.83,NW,304,4.0,4.0,60,0.00,,,0.11,0,Wunderground v.1.15,2013-03-21 08:20:00,
2013-03-21 04:26:00,29.3,17.1,29.83,WNW,302,4.0,5.0,60,0.00,,,0.11,0,Wunderground v.1.15,2013-03-21 08:26:00,
2013-03-21 04:32:00,29.3,17.1,29.83,WNW,301,4.0,4.0,60,0.00,,,0.11,0,Wunderground v.1.15,2013-03-21 08:32:00,
2013-03-21 04:38:00,29.1,16.9,29.83,WNW,302,4.0,5.0,60,0.00,,,0.11,0,Wunderground v.1.15,2013-03-21 08:38:00,
2013-03-21 04:44:00,29.1,16.9,29.83,WNW,302,3.0,3.0,60,0.00,,,0.11,0,Wunderground v.1.15,2013-03-21 08:44:00,
2013-03-21 04:50:00,29.1,16.9,29.83,WNW,302,3.0,3.0,60,0.00,,,0.11,0,Wunderground v.1.15,2013-03-21 08:50:00,
2013-03-21 04:56:00,29.1,17.3,29.83,WNW,302,1.0,3.0,61,0.00,,,0.00,0,Wunderground v.1.15,2013-03-21 08:56:00,
2013-03-21 05:02:00,29.1,17.3,29.83,WNW,302,1.0,3.0,61,0.00,,,0.00,0,Wunderground v.1.15,2013-03-21 09:02:00,
2013-03-21 05:08:00,29.3,17.5,29.83,WNW,302,1.0,4.0,61,0.00,,,0.00,0,Wunderground v.1.15,2013-03-21 09:08:00,
2013-03-21 05:14:00,29.3,17.9,29.83,WNW,302,0.0,4.0,62,0.00,,,0.00,0,Wunderground v.1.15,2013-03-21 09:14:00,
2013-03-21 05:20:00,29.1,17.3,29.83,WNW,302,0.0,4.0,61,0.00,,,0.00,0,Wunderground v.1.15,2013-03-21 09:20:00,
2013-03-21 05:26:00,29.0,17.6,29.82,WNW,302,0.0,4.0,62,0.00,,,0.00,0,Wunderground v.1.15,2013-03-21 09:26:00,
2013-03-21 05:32:00,28.7,17.7,29.82,WNW,302,0.0,4.0,63,0.00,,,0.00,0,Wunderground v.1.15,2013-03-21 09:32:00,
2013-03-21 05:38:00,28.5,17.5,29.82,WNW,302,0.0,4.0,63,0.00,,,0.00,0,Wunderground v.1.15,2013-03-21 09:38:00,
2013-03-21 05:44:00,28.4,17.4,29.83,WNW,302,0.0,4.0,63,0.00,,,0.00,0,Wunderground v.1.15,2013-03-21 09:44:00,
2013-03-21 05:50:00,28.4,17.0,29.83,WNW,302,0.0,4.0,62,0.00,,,0.00,0,Wunderground v.1.15,2013-03-21 09:50:00,
2013-03-21 05:56:00,28.4,17.4,29.82,WNW,302,0.0,4.0,63,0.00,,,0.00,0,Wunderground v.1.15,2013-03-21 09:56:00,
2013-03-21 06:02:00,28.4,17.4,29.82,WNW,302,0.0,4.0,63,0.00,,,0.00,0,Wunderground v.1.15,2013-03-21 10:02:00,
2013-03-21 06:08:00,28.2,17.2,29.82,WNW,302,0.0,4.0,63,0.00,,,0.00,0,Wunderground v.1.15,2013-03-21 10:08:00,
2013-03-21 06:14:00,28.2,17.6,29.83,WNW,302,0.0,0.0,64,0.00,,,0.00,0,Wunderground v.1.15,2013-03-21 10:14:00,
2013-03-21 06:20:00,28.1,17.8,29.83,WNW,302,0.0,0.0,65,0.00,,,0.00,0,Wunderground v.1.15,2013-03-21 10:20:00,
2013-03-21 06:26:00,27.9,18.0,29.83,WNW,302,0.0,0.0,66,0.00,,,0.00,0,Wunderground v.1.15,2013-03-21 10:26:00,
2013-03-21 06:32:00,27.8,18.3,29.83,WNW,302,0.0,0.0,67,0.00,,,0.00,0,Wunderground v.1.15,2013-03-21 10:32:00,
2013-03-21 06:38:00,27.8,19.9,29.83,WNW,302,0.0,0.0,72,0.00,,,0.00,0,Wunderground v.1.15,2013-03-21 10:38:00,
2013-03-21 06:44:00,27.6,20.7,29.83,WNW,302,0.0,0.0,75,0.00,,,0.00,0,Wunderground v.1.15,2013-03-21 10:44:00,
2013-03-21 06:50:00,27.6,21.6,29.83,WNW,302,0.0,0.0,78,0.00,,,0.00,0,Wunderground v.1.15,2013-03-21 10:50:00,
2013-03-21 06:56:00,27.5,21.2,29.84,WNW,302,0.0,1.0,77,0.00,,,0.00,7,Wunderground v.1.15,2013-03-21 10:56:00,
2013-03-21 07:02:00,27.3,20.7,29.84,WNW,302,0.0,0.0,76,0.00,,,0.00,14,Wunderground v.1.15,2013-03-21 11:02:00,
2013-03-21 07:08:00,27.5,20.9,29.84,WNW,302,0.0,0.0,76,0.00,,,0.00,23,Wunderground v.1.15,2013-03-21 11:08:00,
2013-03-21 07:14:00,27.6,20.7,29.83,WNW,302,0.0,0.0,75,0.00,,,0.00,33,Wunderground v.1.15,2013-03-21 11:14:00,
2013-03-21 07:20:00,27.9,21.3,29.83,WNW,302,0.0,0.0,76,0.00,,,0.00,44,Wunderground v.1.15,2013-03-21 11:20:00,
2013-03-21 07:26:00,28.4,21.5,29.83,WNW,302,0.0,1.0,75,0.00,,,0.00,46,Wunderground v.1.15,2013-03-21 11:26:00,
2013-03-21 07:32:00,28.5,21.6,29.83,WNW,302,0.0,0.0,75,0.00,,,0.00,53,Wunderground v.1.15,2013-03-21 11:32:00,
2013-03-21 07:38:00,28.8,21.9,29.83,WNW,302,0.0,0.0,75,0.00,,,0.00,70,Wunderground v.1.15,2013-03-21 11:38:00,
2013-03-21 07:44:00,29.0,21.7,29.83,WNW,302,0.0,0.0,74,0.00,,,0.00,72,Wunderground v.1.15,2013-03-21 11:44:00,
2013-03-21 07:50:00,29.0,20.8,29.83,WNW,302,0.0,0.0,71,0.00,,,0.00,116,Wunderground v.1.15,2013-03-21 11:50:00,
2013-03-21 07:56:00,29.0,20.1,29.83,WNW,302,1.0,2.0,69,0.00,,,0.00,100,Wunderground v.1.15,2013-03-21 11:56:00,
2013-03-21 08:02:00,29.1,20.2,29.83,WNW,302,1.0,1.0,69,0.00,,,0.00,109,Wunderground v.1.15,2013-03-21 12:02:00,
2013-03-21 08:08:00,29.4,19.8,29.83,WNW,302,0.0,3.0,67,0.00,,,0.00,91,Wunderground v.1.15,2013-03-21 12:08:00,
2013-03-21 08:14:00,29.4,19.4,29.83,WNW,302,0.0,0.0,66,0.00,,,0.00,141,Wunderground v.1.15,2013-03-21 12:14:00,
2013-03-21 08:20:00,29.7,19.4,29.83,WNW,302,0.0,0.0,65,0.00,,,0.00,158,Wunderground v.1.15,2013-03-21 12:20:00,
2013-03-21 08:26:00,29.8,19.1,29.83,WNW,302,1.0,2.0,64,0.00,,,0.00,118,Wunderground v.1.15,2013-03-21 12:26:00,
2013-03-21 08:32:00,30.0,19.3,29.83,WNW,302,1.0,1.0,64,0.00,,,0.00,128,Wunderground v.1.15,2013-03-21 12:32:00,
2013-03-21 08:38:00,30.1,19.0,29.83,WNW,286,1.0,2.0,63,0.00,,,0.00,67,Wunderground v.1.15,2013-03-21 12:38:00,
2013-03-21 08:44:00,30.3,19.2,29.83,NW,308,1.0,6.0,63,0.00,,,0.00,125,Wunderground v.1.15,2013-03-21 12:44:00,
2013-03-21 08:50:00,30.3,18.5,29.83,WNW,286,2.0,3.0,61,0.00,,,0.00,74,Wunderground v.1.15,2013-03-21 12:50:00,
2013-03-21 08:56:00,30.3,18.5,29.82,WNW,288,2.0,3.0,61,0.00,,,0.00,130,Wunderground v.1.15,2013-03-21 12:56:00,
2013-03-21 09:02:00,30.6,18.7,29.82,WNW,288,1.0,3.0,61,0.00,,,0.00,306,Wunderground v.1.15,2013-03-21 13:02:00,
2013-03-21 09:08:00,30.9,17.4,29.82,WNW,288,1.0,3.0,57,0.00,,,0.00,292,Wunderground v.1.15,2013-03-21 13:08:00,
2013-03-21 09:14:00,31.3,17.4,29.82,WNW,288,2.0,4.0,56,0.00,,,0.00,381,Wunderground v.1.15,2013-03-21 13:14:00,
2013-03-21 09:20:00,31.5,16.7,29.82,WNW,297,3.0,3.0,54,0.00,,,0.00,543,Wunderground v.1.15,2013-03-21 13:20:00,
2013-03-21 09:26:00,31.9,17.1,29.81,WNW,297,2.0,6.0,54,0.00,,,0.00,404,Wunderground v.1.15,2013-03-21 13:26:00,
2013-03-21 09:32:00,32.4,17.6,29.81,WNW,297,2.0,2.0,54,0.00,,,0.00,464,Wunderground v.1.15,2013-03-21 13:32:00,
2013-03-21 09:38:00,32.5,17.2,29.81,WNW,296,2.0,5.0,53,0.00,,,0.00,585,Wunderground v.1.15,2013-03-21 13:38:00,
2013-03-21 09:44:00,32.9,16.7,29.81,WNW,296,2.0,4.0,51,0.00,,,0.00,179,Wunderground v.1.15,2013-03-21 13:44:00,
2013-03-21 09:50:00,32.7,16.1,29.81,WNW,297,2.0,2.0,50,0.00,,,0.00,167,Wunderground v.1.15,2013-03-21 13:50:00,
2013-03-21 09:56:00,32.8,16.2,29.81,WNW,297,1.0,7.0,50,0.00,,,0.00,302,Wunderground v.1.15,2013-03-21 13:56:00,
2013-03-21 10:02:00,32.8,14.8,29.81,WNW,296,1.0,2.0,47,0.00,,,0.00,272,Wunderground v.1.15,2013-03-21 14:02:00,
2013-03-21 10:08:00,32.7,14.7,29.81,WNW,296,2.0,6.0,47,0.00,,,0.00,230,Wunderground v.1.15,2013-03-21 14:08:00,
2013-03-21 10:14:00,32.5,14.5,29.81,WNW,296,3.0,5.0,47,0.00,,,0.00,323,Wunderground v.1.15,2013-03-21 14:14:00,
2013-03-21 10:20:00,32.9,14.8,29.81,WNW,297,2.0,5.0,47,0.00,,,0.00,489,Wunderground v.1.15,2013-03-21 14:20:00,
2013-03-21 10:26:00,33.7,15.6,29.80,WNW,297,2.0,5.0,47,0.00,,,0.00,682,Wunderground v.1.15,2013-03-21 14:26:00,
2013-03-21 10:32:00,34.3,15.1,29.80,WNW,297,2.0,5.0,45,0.00,,,0.00,675,Wunderground v.1.15,2013-03-21 14:32:00,
2013-03-21 10:38:00,33.5,13.9,29.80,WNW,297,2.0,7.0,44,0.00,,,0.01,795,Wunderground v.1.15,2013-03-21 14:38:00,
2013-03-21 10:44:00,33.4,14.3,29.80,WNW,297,3.0,6.0,45,0.00,,,0.01,408,Wunderground v.1.15,2013-03-21 14:44:00,
2013-03-21 10:50:00,33.7,15.1,29.80,WNW,297,2.0,5.0,46,0.00,,,0.01,385,Wunderground v.1.15,2013-03-21 14:50:00,
2013-03-21 10:56:00,33.5,14.4,29.80,WNW,297,1.0,5.0,45,0.00,,,0.01,278,Wunderground v.1.15,2013-03-21 14:56:00,
2013-03-21 11:02:00,33.4,14.3,29.80,WNW,297,1.0,5.0,45,0.00,,,0.01,357,Wunderground v.1.15,2013-03-21 15:02:00,
2013-03-21 11:08:00,33.8,15.7,29.80,WNW,298,1.0,5.0,47,0.00,,,0.01,345,Wunderground v.1.15,2013-03-21 15:08:00,
2013-03-21 11:14:00,34.3,16.1,29.79,WNW,297,1.0,4.0,47,0.00,,,0.01,522,Wunderground v.1.15,2013-03-21 15:14:00,
2013-03-21 11:20:00,34.9,15.7,29.79,WNW,297,1.0,1.0,45,0.00,,,0.01,436,Wunderground v.1.15,2013-03-21 15:20:00,
2013-03-21 11:26:00,35.5,15.7,29.79,WNW,297,0.0,4.0,44,0.00,,,0.01,315,Wunderground v.1.15,2013-03-21 15:26:00,
2013-03-21 11:32:00,35.0,15.3,29.79,WNW,294,1.0,4.0,44,0.00,,,0.01,204,Wunderground v.1.15,2013-03-21 15:32:00,
2013-03-21 11:38:00,34.7,16.0,29.79,WNW,294,1.0,4.0,46,0.00,,,0.01,278,Wunderground v.1.15,2013-03-21 15:38:00,
2013-03-21 11:44:00,33.8,14.7,29.78,WNW,295,2.0,5.0,45,0.00,,,0.01,181,Wunderground v.1.15,2013-03-21 15:44:00,
2013-03-21 11:50:00,33.5,14.4,29.78,WNW,295,2.0,2.0,45,0.00,,,0.01,322,Wunderground v.1.15,2013-03-21 15:50:00,
2013-03-21 11:56:00,34.0,15.9,29.78,WNW,295,1.0,6.0,47,0.00,,,0.01,473,Wunderground v.1.15,2013-03-21 15:56:00,
2013-03-21 12:02:00,33.2,17.9,29.78,WSW,257,5.0,9.0,53,0.00,,,0.01,617,Wunderground v.1.15,2013-03-21 16:02:00,
2013-03-21 12:08:00,33.2,17.9,29.78,WSW,257,4.0,9.0,53,0.00,,,0.01,464,Wunderground v.1.15,2013-03-21 16:08:00,
2013-03-21 12:14:00,33.2,17.0,29.78,West,277,2.0,2.0,51,0.00,,,0.01,664,Wunderground v.1.15,2013-03-21 16:14:00,
2013-03-21 12:20:00,33.7,17.9,29.78,West,279,2.0,4.0,52,0.00,,,0.01,346,Wunderground v.1.15,2013-03-21 16:20:00,
2013-03-21 12:26:00,33.8,18.0,29.77,NW,309,2.0,4.0,52,0.00,,,0.01,223,Wunderground v.1.15,2013-03-21 16:26:00,
2013-03-21 12:32:00,33.7,17.0,29.77,NW,309,0.0,2.0,50,0.00,,,0.01,279,Wunderground v.1.15,2013-03-21 16:32:00,
2013-03-21 12:38:00,33.8,17.6,29.77,NW,308,1.0,2.0,51,0.00,,,0.01,320,Wunderground v.1.15,2013-03-21 16:38:00,
2013-03-21 12:44:00,33.8,18.0,29.76,WNW,292,1.0,1.0,52,0.00,,,0.01,431,Wunderground v.1.15,2013-03-21 16:44:00,
2013-03-21 12:50:00,34.3,18.9,29.76,WNW,292,0.0,1.0,53,0.00,,,0.01,353,Wunderground v.1.15,2013-03-21 16:50:00,
2013-03-21 12:56:00,34.1,19.2,29.75,WNW,292,0.0,1.0,54,0.00,,,0.01,601,Wunderground v.1.15,2013-03-21 16:56:00,
2013-03-21 13:02:00,34.1,19.6,29.75,SSE,163,1.0,4.0,55,0.00,,,0.01,302,Wunderground v.1.15,2013-03-21 17:02:00,
2013-03-21 13:08:00,33.7,18.8,29.75,SSE,161,1.0,4.0,54,0.00,,,0.01,364,Wunderground v.1.15,2013-03-21 17:08:00,
2013-03-21 13:14:00,34.1,18.7,29.74,SSE,161,0.0,1.0,53,0.00,,,0.01,457,Wunderground v.1.15,2013-03-21 17:14:00,
2013-03-21 13:20:00,34.6,19.6,29.74,SSE,167,1.0,1.0,54,0.00,,,0.01,492,Wunderground v.1.15,2013-03-21 17:20:00,
2013-03-21 13:26:00,34.9,19.0,29.74,South,170,1.0,2.0,52,0.00,,,0.01,352,Wunderground v.1.15,2013-03-21 17:26:00,
2013-03-21 13:32:00,34.6,18.8,29.74,SW,232,1.0,5.0,52,0.00,,,0.01,394,Wunderground v.1.15,2013-03-21 17:32:00,
2013-03-21 13:38:00,34.1,18.7,29.74,ESE,115,2.0,5.0,53,0.00,,,0.01,355,Wunderground v.1.15,2013-03-21 17:38:00,
2013-03-21 13:44:00,33.8,19.3,29.72,East,87,2.0,4.0,55,0.00,,,0.01,315,Wunderground v.1.15,2013-03-21 17:44:00,
2013-03-21 13:50:00,34.1,19.6,29.72,East,85,2.0,2.0,55,0.00,,,0.01,265,Wunderground v.1.15,2013-03-21 17:50:00,
2013-03-21 13:56:00,34.3,19.8,29.72,ENE,70,2.0,3.0,55,0.00,,,0.01,299,Wunderground v.1.15,2013-03-21 17:56:00,
2013-03-21 14:02:00,34.3,19.4,29.72,East,86,2.0,2.0,54,0.00,,,0.01,258,Wunderground v.1.15,2013-03-21 18:02:00,
2013-03-21 14:08:00,34.6,19.2,29.72,East,86,1.0,2.0,53,0.00,,,0.01,248,Wunderground v.1.15,2013-03-21 18:08:00,
2013-03-21 14:14:00,34.6,19.2,29.71,East,86,1.0,2.0,53,0.00,,,0.01,190,Wunderground v.1.15,2013-03-21 18:14:00,
2013-03-21 14:20:00,34.7,19.7,29.71,East,86,1.0,2.0,54,0.00,,,0.01,188,Wunderground v.1.15,2013-03-21 18:20:00,
2013-03-21 14:26:00,34.9,19.9,29.70,East,86,1.0,2.0,54,0.00,,,0.01,241,Wunderground v.1.15,2013-03-21 18:26:00,
2013-03-21 14:32:00,35.0,18.7,29.70,WNW,283,1.0,2.0,51,0.00,,,0.01,288,Wunderground v.1.15,2013-03-21 18:32:00,
2013-03-21 14:38:00,35.5,19.6,29.70,WNW,302,3.0,3.0,52,0.00,,,0.01,359,Wunderground v.1.15,2013-03-21 18:38:00,
2013-03-21 14:44:00,36.0,20.1,29.69,ENE,69,3.0,5.0,52,0.00,,,0.01,452,Wunderground v.1.15,2013-03-21 18:44:00,
2013-03-21 14:50:00,35.8,19.0,29.69,NNE,31,3.0,5.0,50,0.00,,,0.01,376,Wunderground v.1.15,2013-03-21 18:50:00,
2013-03-21 14:56:00,35.3,18.5,29.68,NNE,31,2.0,5.0,50,0.00,,,0.01,290,Wunderground v.1.15,2013-03-21 18:56:00,
2013-03-21 15:02:00,35.6,18.8,29.68,NNE,31,1.0,2.0,50,0.00,,,0.01,329,Wunderground v.1.15,2013-03-21 19:02:00,
2013-03-21 15:08:00,35.8,19.4,29.68,NNE,32,1.0,2.0,51,0.00,,,0.01,308,Wunderground v.1.15,2013-03-21 19:08:00,
2013-03-21 15:14:00,36.5,19.6,29.67,NNE,31,0.0,2.0,50,0.00,,,0.01,243,Wunderground v.1.15,2013-03-21 19:14:00,
2013-03-21 15:20:00,36.0,19.1,29.67,SSE,160,1.0,1.0,50,0.00,,,0.01,278,Wunderground v.1.15,2013-03-21 19:20:00,
2013-03-21 15:26:00,35.6,18.8,29.67,SSE,154,2.0,4.0,50,0.00,,,0.01,276,Wunderground v.1.15,2013-03-21 19:26:00,
2013-03-21 15:32:00,35.8,19.4,29.67,SSE,161,2.0,2.0,51,0.00,,,0.01,257,Wunderground v.1.15,2013-03-21 19:32:00,
2013-03-21 15:38:00,36.2,19.8,29.67,SSE,161,1.0,2.0,51,0.00,,,0.01,327,Wunderground v.1.15,2013-03-21 19:38:00,
2013-03-21 15:44:00,36.3,18.5,29.66,NE,44,2.0,5.0,48,0.00,,,0.01,274,Wunderground v.1.15,2013-03-21 19:44:00,
2013-03-21 15:50:00,36.3,18.0,29.66,ENE,71,3.0,3.0,47,0.00,,,0.01,364,Wunderground v.1.15,2013-03-21 19:50:00,
2013-03-21 15:56:00,36.8,18.4,29.66,NW,325,3.0,4.0,47,0.00,,,0.01,292,Wunderground v.1.15,2013-03-21 19:56:00,
2013-03-21 16:02:00,36.9,17.0,29.66,NW,324,2.0,3.0,44,0.00,,,0.01,216,Wunderground v.1.15,2013-03-21 20:02:00,
2013-03-21 16:08:00,37.2,18.8,29.66,NW,317,2.0,6.0,47,0.00,,,0.01,359,Wunderground v.1.15,2013-03-21 20:08:00,
2013-03-21 16:14:00,37.3,17.9,29.66,North,5,2.0,6.0,45,0.00,,,0.01,315,Wunderground v.1.15,2013-03-21 20:14:00,
2013-03-21 16:20:00,36.8,18.9,29.66,NE,37,4.0,6.0,48,0.00,,,0.01,234,Wunderground v.1.15,2013-03-21 20:20:00,
2013-03-21 16:26:00,36.5,19.1,29.65,NNE,26,3.0,6.0,49,0.00,,,0.01,167,Wunderground v.1.15,2013-03-21 20:26:00,
2013-03-21 16:32:00,36.6,19.7,29.65,NNE,26,2.0,6.0,50,0.00,,,0.01,155,Wunderground v.1.15,2013-03-21 20:32:00,
2013-03-21 16:38:00,36.3,19.4,29.65,NW,315,2.0,7.0,50,0.00,,,0.01,144,Wunderground v.1.15,2013-03-21 20:38:00,
2013-03-21 16:44:00,36.2,19.3,29.66,NW,315,3.0,6.0,50,0.00,,,0.01,153,Wunderground v.1.15,2013-03-21 20:44:00,
2013-03-21 16:50:00,36.2,19.8,29.66,NNE,28,1.0,6.0,51,0.00,,,0.01,160,Wunderground v.1.15,2013-03-21 20:50:00,
2013-03-21 16:56:00,36.0,20.9,29.66,NNE,24,2.0,6.0,54,0.00,,,0.01,127,Wunderground v.1.15,2013-03-21 20:56:00,
2013-03-21 17:02:00,35.5,23.0,29.66,NE,49,2.0,6.0,60,0.00,,,0.01,91,Wunderground v.1.15,2013-03-21 21:02:00,
2013-03-21 17:08:00,35.0,22.5,29.66,NW,304,2.0,6.0,60,0.00,,,0.01,83,Wunderground v.1.15,2013-03-21 21:08:00,
2013-03-21 17:14:00,34.7,23.4,29.66,North,9,2.0,6.0,63,0.00,,,0.01,88,Wunderground v.1.15,2013-03-21 21:14:00,
2013-03-21 17:20:00,34.1,23.9,29.66,NNE,14,3.0,3.0,66,0.00,,,0.01,70,Wunderground v.1.15,2013-03-21 21:20:00,
2013-03-21 17:26:00,33.8,24.4,29.66,NNE,14,2.0,6.0,68,0.00,,,0.01,63,Wunderground v.1.15,2013-03-21 21:26:00,
2013-03-21 17:32:00,33.5,25.1,29.66,NW,308,2.0,6.0,71,0.00,,,0.01,74,Wunderground v.1.15,2013-03-21 21:32:00,
2013-03-21 17:38:00,33.2,25.8,29.66,NW,308,3.0,6.0,74,0.00,,,0.01,70,Wunderground v.1.15,2013-03-21 21:38:00,
2013-03-21 17:44:00,33.1,25.7,29.67,NW,308,2.0,6.0,74,0.00,,,0.01,86,Wunderground v.1.15,2013-03-21 21:44:00,
2013-03-21 17:50:00,32.9,25.5,29.67,NW,308,2.0,2.0,74,0.00,,,0.01,70,Wunderground v.1.15,2013-03-21 21:50:00,
2013-03-21 17:56:00,32.8,25.7,29.66,NW,308,2.0,6.0,75,0.00,,,0.01,49,Wunderground v.1.15,2013-03-21 21:56:00,
2013-03-21 18:02:00,32.4,25.7,29.66,NNE,32,2.0,6.0,76,0.00,,,0.01,37,Wunderground v.1.15,2013-03-21 22:02:00,
2013-03-21 18:08:00,32.4,26.3,29.66,NW,313,2.0,6.0,78,0.00,,,0.01,35,Wunderground v.1.15,2013-03-21 22:08:00,
2013-03-21 18:14:00,32.4,26.6,29.66,NW,313,1.0,4.0,79,0.00,,,0.01,32,Wunderground v.1.15,2013-03-21 22:14:00,
2013-03-21 18:20:00,32.2,26.4,29.66,NW,313,1.0,1.0,79,0.00,,,0.01,25,Wunderground v.1.15,2013-03-21 22:20:00,
2013-03-21 18:26:00,32.1,26.3,29.67,NW,313,1.0,3.0,79,0.00,,,0.01,25,Wunderground v.1.15,2013-03-21 22:26:00,
2013-03-21 18:32:00,32.1,26.6,29.67,NW,316,1.0,3.0,80,0.00,,,0.01,18,Wunderground v.1.15,2013-03-21 22:32:00,
2013-03-21 18:38:00,32.2,26.7,29.67,NW,316,1.0,3.0,80,0.00,,,0.01,11,Wunderground v.1.15,2013-03-21 22:38:00,
2013-03-21 18:44:00,32.2,26.7,29.67,NW,316,0.0,3.0,80,0.00,,,0.01,5,Wunderground v.1.15,2013-03-21 22:44:00,
2013-03-21 18:50:00,32.1,26.6,29.67,NW,316,0.0,3.0,80,0.00,,,0.01,0,Wunderground v.1.15,2013-03-21 22:50:00,
2013-03-21 18:56:00,31.9,26.7,29.67,NW,316,0.0,3.0,81,0.00,,,0.01,0,Wunderground v.1.15,2013-03-21 22:56:00,
2013-03-21 19:02:00,31.9,27.0,29.67,NW,316,1.0,3.0,82,0.00,,,0.01,0,Wunderground v.1.15,2013-03-21 23:02:00,
2013-03-21 19:08:00,31.6,26.7,29.67,NW,316,1.0,3.0,82,0.00,,,0.01,0,Wunderground v.1.15,2013-03-21 23:08:00,
2013-03-21 19:14:00,31.6,26.7,29.67,NW,316,1.0,2.0,82,0.00,,,0.01,0,Wunderground v.1.15,2013-03-21 23:14:00,
2013-03-21 19:20:00,31.6,27.0,29.67,NW,316,0.0,2.0,83,0.00,,,0.01,0,Wunderground v.1.15,2013-03-21 23:20:00,
2013-03-21 19:28:00,31.6,27.0,29.67,NW,316,0.0,2.0,83,0.00,,,0.01,0,Wunderground v.1.15,2013-03-21 23:28:00,
2013-03-21 19:34:00,31.6,27.3,29.67,NW,316,0.0,2.0,84,0.00,,,0.01,0,Wunderground v.1.15,2013-03-21 23:34:00,
2013-03-21 19:40:00,31.6,27.9,29.67,NW,316,1.0,1.0,86,0.00,,,0.01,0,Wunderground v.1.15,2013-03-21 23:40:00,
2013-03-21 19:46:00,31.6,28.2,29.67,South,188,1.0,4.0,87,0.00,,,0.01,0,Wunderground v.1.15,2013-03-21 23:46:00,
2013-03-21 19:52:00,31.6,28.5,29.67,SSE,149,2.0,2.0,88,0.00,,,0.01,0,Wunderground v.1.15,2013-03-21 23:52:00,
2013-03-21 19:58:00,31.8,28.9,29.67,SE,139,2.0,3.0,89,0.00,,,0.01,0,Wunderground v.1.15,2013-03-21 23:58:00,
2013-03-21 20:04:00,31.6,28.7,29.67,SSE,150,3.0,3.0,89,0.00,,,0.01,0,Wunderground v.1.15,2013-03-22 00:04:00,
2013-03-21 20:10:00,31.6,29.0,29.67,East,96,2.0,2.0,90,0.00,,,0.01,0,Wunderground v.1.15,2013-03-22 00:10:00,
2013-03-21 20:16:00,31.5,28.9,29.67,East,96,2.0,5.0,90,0.00,,,0.01,0,Wunderground v.1.15,2013-03-22 00:16:00,
2013-03-21 20:22:00,31.3,28.7,29.67,SE,134,2.0,5.0,90,0.00,,,0.01,0,Wunderground v.1.15,2013-03-22 00:22:00,
2013-03-21 20:28:00,31.5,28.9,29.67,SE,134,1.0,5.0,90,0.00,,,0.01,0,Wunderground v.1.15,2013-03-22 00:28:00,
2013-03-21 20:34:00,31.5,28.9,29.67,SE,135,1.0,5.0,90,0.00,,,0.01,0,Wunderground v.1.15,2013-03-22 00:34:00,
2013-03-21 20:40:00,31.6,29.3,29.66,SE,139,1.0,5.0,91,0.00,,,0.01,0,Wunderground v.1.15,2013-03-22 00:40:00,
2013-03-21 20:46:00,31.6,29.3,29.66,SE,136,1.0,5.0,91,0.00,,,0.01,0,Wunderground v.1.15,2013-03-22 00:46:00,
2013-03-21 20:52:00,31.8,29.5,29.66,SSE,155,1.0,5.0,91,0.00,,,0.01,0,Wunderground v.1.15,2013-03-22 00:52:00,
2013-03-21 20:58:00,31.8,29.5,29.66,SSE,151,2.0,5.0,91,0.00,,,0.01,0,Wunderground v.1.15,2013-03-22 00:58:00,
2013-03-21 21:04:00,31.8,29.5,29.66,SSE,152,1.0,5.0,91,0.00,,,0.01,0,Wunderground v.1.15,2013-03-22 01:04:00,
2013-03-21 21:10:00,31.8,29.5,29.66,SSE,155,1.0,1.0,91,0.00,,,0.01,0,Wunderground v.1.15,2013-03-22 01:10:00,
2013-03-21 21:16:00,31.8,29.5,29.66,SSE,155,1.0,3.0,91,0.00,,,0.01,0,Wunderground v.1.15,2013-03-22 01:16:00,
2013-03-21 21:22:00,31.8,29.5,29.66,SSE,155,1.0,2.0,91,0.00,,,0.01,0,Wunderground v.1.15,2013-03-22 01:22:00,
2013-03-21 21:28:00,31.6,29.0,29.66,SSE,155,0.0,2.0,90,0.00,,,0.01,0,Wunderground v.1.15,2013-03-22 01:28:00,
2013-03-21 21:34:00,31.6,29.0,29.66,SSE,155,1.0,1.0,90,0.00,,,0.01,0,Wunderground v.1.15,2013-03-22 01:34:00,
2013-03-21 21:40:00,31.8,29.2,29.66,SSE,155,1.0,1.0,90,0.00,,,0.01,0,Wunderground v.1.15,2013-03-22 01:40:00,
2013-03-21 21:46:00,31.8,28.9,29.66,SSE,155,0.0,1.0,89,0.00,,,0.01,0,Wunderground v.1.15,2013-03-22 01:46:00,
2013-03-21 21:52:00,31.8,28.9,29.66,SSE,155,0.0,0.0,89,0.00,,,0.01,0,Wunderground v.1.15,2013-03-22 01:52:00,
2013-03-21 21:58:00,31.8,28.9,29.66,SSE,156,1.0,1.0,89,0.00,,,0.01,0,Wunderground v.1.15,2013-03-22 01:58:00,
2013-03-21 22:04:00,31.8,28.9,29.66,SSE,156,1.0,1.0,89,0.00,,,0.01,0,Wunderground v.1.15,2013-03-22 02:04:00,
2013-03-21 22:10:00,31.8,28.9,29.66,WSW,252,0.0,5.0,89,0.00,,,0.01,0,Wunderground v.1.15,2013-03-22 02:10:00,
2013-03-21 22:16:00,31.8,28.9,29.66,WSW,252,1.0,5.0,89,0.00,,,0.01,0,Wunderground v.1.15,2013-03-22 02:16:00,
2013-03-21 22:22:00,31.8,28.9,29.66,WSW,252,1.0,2.0,89,0.00,,,0.01,0,Wunderground v.1.15,2013-03-22 02:22:00,
2013-03-21 22:28:00,31.8,28.9,29.66,West,269,2.0,4.0,89,0.00,,,0.01,0,Wunderground v.1.15,2013-03-22 02:28:00,
2013-03-21 22:34:00,31.6,28.5,29.66,West,262,3.0,5.0,88,0.00,,,0.01,0,Wunderground v.1.15,2013-03-22 02:34:00,
2013-03-21 22:40:00,31.6,28.5,29.66,West,262,2.0,2.0,88,0.00,,,0.01,0,Wunderground v.1.15,2013-03-22 02:40:00,
2013-03-21 22:46:00,31.6,28.5,29.66,West,261,2.0,4.0,88,0.00,,,0.01,0,Wunderground v.1.15,2013-03-22 02:46:00,
2013-03-21 22:52:00,31.6,28.5,29.66,West,262,1.0,3.0,88,0.00,,,0.01,0,Wunderground v.1.15,2013-03-22 02:52:00,
2013-03-21 22:58:00,31.6,28.5,29.66,West,262,2.0,3.0,88,0.00,,,0.01,0,Wunderground v.1.15,2013-03-22 02:58:00,
2013-03-21 23:04:00,31.6,28.5,29.66,West,262,2.0,2.0,88,0.00,,,0.01,0,Wunderground v.1.15,2013-03-22 03:04:00,
2013-03-21 23:10:00,31.5,28.4,29.66,West,262,2.0,2.0,88,0.00,,,0.01,0,Wunderground v.1.15,2013-03-22 03:10:00,
2013-03-21 23:16:00,31.5,28.4,29.66,WNW,300,2.0,4.0,88,0.00,,,0.01,0,Wunderground v.1.15,2013-03-22 03:16:00,
2013-03-21 23:22:00,31.3,27.9,29.66,West,268,2.0,4.0,87,0.00,,,0.01,0,Wunderground v.1.15,2013-03-22 03:22:00,
2013-03-21 23:28:00,31.3,27.9,29.66,WNW,292,2.0,4.0,87,0.00,,,0.01,0,Wunderground v.1.15,2013-03-22 03:28:00,
2013-03-21 23:34:00,31.2,27.8,29.66,NW,304,2.0,4.0,87,0.00,,,0.01,0,Wunderground v.1.15,2013-03-22 03:34:00,
2013-03-21 23:40:00,31.2,27.8,29.66,NW,304,1.0,1.0,87,0.00,,,0.01,0,Wunderground v.1.15,2013-03-22 03:40:00,
2013-03-21 23:46:00,31.0,27.6,29.66,NW,304,0.0,4.0,87,0.00,,,0.01,0,Wunderground v.1.15,2013-03-22 03:46:00,
2013-03-21 23:52:00,30.9,27.5,29.66,NW,304,0.0,4.0,87,0.00,,,0.01,0,Wunderground v.1.15,2013-03-22 03:52:00,
2013-03-21 23:58:00,30.7,27.3,29.65,NW,304,1.0,4.0,87,0.00,,,0.01,0,Wunderground v.1.15,2013-03-22 03:58:00,